This demonstration page uses our WeatherBlox Daily Observations layout. Learn more.

Left ArrowRight Arrow

53.62937, 11.41316

Hourly Observations for July 28, 2018

Temp ( °F °C ) Dew Point ( °F °C ) Humidity (%) Winds ( mph kmh ) Pressure ( in mb ) Visibility ( mi km ) Precip ( " mm )
7:20 am 07:20 Mostly Sunny 72 22 68 20 88 88 E 5 7 29.80 1009 7 11 N/A
7:50 am 07:50 Mostly Sunny 73 23 68 20 83 83 E 5 7 29.80 1009 7 11 N/A
8:20 am 08:20 Mostly Sunny 75 24 66 19 74 74 ESE 5 7 29.80 1009 7 11 N/A
8:50 am 08:50 Mostly Sunny 77 25 66 19 69 69 ESE 7 11 29.80 1009 7 11 N/A
9:20 am 09:20 Mostly Sunny 79 26 66 19 65 65 SE 7 11 29.80 1009 7 11 N/A
9:50 am 09:50 Mostly Sunny 81 27 66 19 62 62 SE 7 11 29.80 1009 7 11 N/A
10:20 am 10:20 Mostly Sunny 82 28 64 18 55 55 ESE 8 13 29.80 1009 7 11 N/A
10:50 am 10:50 Mostly Sunny 84 29 64 18 51 51 SE 8 13 29.77 1008 7 11 N/A
11:20 am 11:20 Mostly Sunny 84 29 63 17 48 48 SE 10 17 29.77 1008 7 11 N/A
11:50 am 11:50 Mostly Sunny 88 31 64 18 46 46 SE 9 15 29.77 1008 30 48 N/A
12:20 pm 12:20 Mostly Sunny 88 31 63 17 43 43 SE 9 15 29.77 1008 7 11 N/A
12:50 pm 12:50 Mostly Sunny 88 31 61 16 40 40 SE 10 17 29.74 1007 7 11 N/A
1:20 pm 13:20 Mostly Sunny 88 31 59 15 38 38 SE 13 20 29.74 1007 7 11 N/A
1:50 pm 13:50 Mostly Sunny 88 31 59 15 38 38 SSE 13 20 29.74 1007 7 11 N/A
2:20 pm 14:20 Mostly Sunny 90 32 59 15 36 36 SE 10 17 29.71 1006 7 11 N/A
2:50 pm 14:50 Mostly Sunny 91 33 59 15 34 34 SE 10 17 29.71 1006 7 11 N/A
3:20 pm 15:20 Mostly Sunny 90 32 59 15 36 36 SE 9 15 29.71 1006 7 11 N/A
3:50 pm 15:50 Mostly Sunny 90 32 61 16 38 38 SE 9 15 29.71 1006 7 11 N/A
4:20 pm 16:20 Mostly Cloudy with Showers Nearby 88 31 61 16 40 40 ESE 9 15 29.71 1006 30 48 N/A
4:50 pm 16:50 Mostly Cloudy with Thunderstorms 79 26 59 15 51 51 VRB 10 17 29.74 1007 30 48 N/A
5:20 pm 17:20 Mostly Cloudy with Thunderstorms 70 21 66 19 88 88 WSW 9 15 29.77 1008 4 7 N/A
5:50 pm 17:50 Mostly Cloudy with Light Showers 68 20 68 20 100 100 VRB 3 6 29.77 1008 4 7 N/A
6:20 pm 18:20 Mostly Cloudy with Light Showers 70 21 68 20 94 94 VRB 2 4 29.77 1008 30 48 N/A
6:50 pm 18:50 Mostly Cloudy with Light Showers 68 20 68 20 100 100 VRB 2 4 29.77 1008 30 48 N/A
7:20 pm 19:20 Mostly Cloudy with Showers Nearby 70 21 70 21 100 100 VRB 2 4 29.77 1008 30 48 N/A
7:50 pm 19:50 Mostly Sunny 70 21 70 21 100 100 W 5 7 29.80 1009 7 11 N/A
8:20 pm 20:20 Mostly Cloudy 68 20 68 20 100 100 W 5 7 29.83 1010 30 48 N/A
8:50 pm 20:50 Mostly Cloudy 68 20 68 20 100 100 W 6 9 29.83 1010 30 48 N/A

Powered by AerisWeather